Location: Unspecified
(0.0000°N, 0.0000°E)
Time: 01:28:26
(UTC+00:00)

Explorer 25 - Pass Details

Date: 13 March 2026
Orbit: 523 x 2264 km, 81.3° (Epoch: 14 April)

Event Time Altitude Azimuth Distance (km) Brightness Sun altitude
Rises 05:43:33 0° 28° (NNE) 2,909 11.4 -6.5°
Reaches altitude 10° 05:46:07 10° 47° (NE) 2,169 11.1 -5.9°
Maximum altitude 05:49:31 19° 93° (E) 1,872 11.5 -5.0°
Drops below altitude 10° 05:53:42 10° 136° (SE) 2,785 11.7 -4.0°
Sets 05:57:32 0° 152° (SSE) 4,082 12.2 -3.0°
